STARLINK-34063 (64185 NORAD) Tracking and Keplerian Element Data

This shows tracking and keplerian element data for the satellite.

Feedback or suggestion? Click here.




ElementValue
Catalog64185
NameSTARLINK-34063
Epoch Orbit3278
Epoch Day353.47586674
Epoch Year2025
RAAN103.7394
Inclination53.1583
Eccentricity0.0002278
Argument of Perigee137.0779
Mean Anonmoly223.04
Mean Motion15.30207081
Decay Rate0.00020324
L11 64185U 25113R 25353.47586674 .00020324 00000+0 69629-3 0 9996
L22 64185 53.1583 103.7394 0002278 137.0779 223.0400 15.30207081 32789



Live tracking and technical data element details for STARLINK-34063 (NORAD 64185). STARLINK-34063 can be tracked NOW for your location showing map with azimuth and elevation plus other details from your city location.







IsCatalogInMostPopularTable: catalog: 64185, numindb: 7
Update: records affected: 1



GetName: 64185 STARLINK-34063

Hit Count: updated at: Mon, 20 Apr 2026 09:01:48 GMT